EW6604 Weather Reports


Display with metric or nautical units.
time (UTC)temp
F
wind
direction
speed
MPH
gust
MPH
rain 1hr
in
rain 24hr
in
rain mn
in
humidity
%
barometer
mb
20260902165211 80 49 7.0 17.0 0.24 0.57 0.57 91 1016.6
20260902164715 81 43 10.0 18.0 0.10 0.43 0.43 90 1016.5
20260902164219 82 42 11.0 18.0 0.02 0.35 0.35 89 1016.4
20260902163724 83 298 6.0 8.0 0.01 0.34 0.34 89 1016.2
20260902163208 83 291 5.0 7.0 0.00 0.33 0.33 89 1016.1
20260902162713 84 301 4.0 9.0 0.00 0.33 0.33 88 1016.1
20260902162238 84 48 6.0 11.0 0.00 0.33 0.33 86 1016.1
20260902161724 84 46 9.0 11.0 0.00 0.33 0.33 87 1016.1
20260902161208 83 50 5.0 8.0 0.00 0.33 0.33 87 1016.2
20260902160725 83 55 4.0 7.0 0.12 0.33 0.33 87 1016.3
20260902160209 83 57 3.0 8.0 0.31 0.33 0.33 88 1016.5
20260902155715 82 89 4.0 9.0 0.31 0.33 0.33 88 1016.8
20260902155240 82 45 7.0 9.0 0.31 0.33 0.33 90 1016.8
20260902154724 81 33 7.0 12.0 0.31 0.33 0.33 90 1016.8
20260902154207 81 44 8.0 13.0 0.31 0.33 0.33 90 1016.7
20260902153711 80 30 9.0 14.0 0.32 0.33 0.33 90 1016.9
20260902153214 81 29 9.0 14.0 0.33 0.33 0.33 91 1017.0
20260902152719 80 42 7.0 13.0 0.33 0.33 0.33 91 1017.1
20260902152224 80 53 10.0 13.0 0.33 0.33 0.33 91 1017.2
20260902151709 80 53 10.0 16.0 0.33 0.33 0.33 92 1017.2
20260902151217 80 61 8.0 22.0 0.33 0.33 0.33 90 1017.3
20260902150722 81 88 19.0 22.0 0.16 0.16 0.16 90 1017.2
20260902150227 82 66 6.0 9.0 0.02 0.02 0.02 89 1016.8
20260902145712 83 56 7.0 9.0 0.02 0.02 0.02 89 1016.8
20260902145238 82 37 4.0 8.0 0.02 0.02 0.02 89 1016.7
20260902144721 82 43 4.0 6.0 0.02 0.02 0.02 90 1016.7
20260902144226 82 53 3.0 9.0 0.02 0.02 0.02 89 1016.8
20260902143730 82 39 6.0 10.0 0.01 0.01 0.01 89 1016.7
20260902143215 82 37 8.0 12.0 0.00 0.00 0.00 89 1016.7
20260902142719 83 33 9.0 12.0 0.00 0.00 0.00 88 1016.7
20260902142223 83 44 10.0 13.0 0.00 0.00 0.00 89 1016.7
20260902141720 82 40 8.0 12.0 0.00 0.00 0.00 90 1016.7
20260902141212 82 23 5.0 8.0 0.00 0.00 0.00 90 1016.7
20260902140724 82 35 6.0 9.0 0.00 0.00 0.00 90 1016.7
20260902140212 82 29 7.0 9.0 0.00 0.00 0.00 90 1016.7
20260902135717 82 33 7.0 9.0 0.00 0.00 0.00 90 1016.6
20260902135221 82 42 7.0 9.0 0.00 0.00 0.00 90 1016.7
20260902134727 82 37 8.0 8.0 0.00 0.00 0.00 90 1016.7
20260902134230 82 45 6.0 9.0 0.00 0.00 0.00 89 1016.7
20260902133735 82 49 7.0 11.0 0.00 0.00 0.00 90 1016.7
20260902133218 82 44 9.0 11.0 0.00 0.00 0.00 90 1016.7
20260902132743 82 53 8.0 10.0 0.00 0.00 0.00 90 1016.7
20260902132227 82 41 8.0 10.0 0.00 0.00 0.00 90 1016.7
20260902131712 82 46 7.0 9.0 0.00 0.00 0.00 90 1016.7
20260902131217 82 25 6.0 9.0 0.00 0.00 0.00 90 1016.7
20260902130722 81 35 6.0 10.0 0.00 0.00 0.00 91 1016.7
20260902130227 81 39 6.0 10.0 0.00 0.00 0.00 91 1016.7
20260902125716 81 44 6.0 9.0 0.00 0.00 0.00 91 1016.7
20260902125221 81 38 7.0 9.0 0.00 0.00 0.00 91 1016.7
20260902124725 81 39 7.0 9.0 0.00 0.00 0.00 92 1016.6
20260902124209 81 37 6.0 10.0 0.00 0.00 0.00 92 1016.5
20260902123715 80 25 7.0 10.0 0.00 0.00 0.00 92 1016.5
20260902123220 80 29 6.0 7.0 0.00 0.00 0.00 92 1016.5
20260902122724 80 32 5.0 7.0 0.00 0.00 0.00 92 1016.5
20260902122210 80 36 6.0 9.0 0.00 0.00 0.00 92 1016.5
20260902121715 80 15 7.0 9.0 0.00 0.00 0.00 92 1016.4
20260902121220 80 33 7.0 9.0 0.00 0.00 0.00 92 1016.4
20260902120717 80 28 7.0 10.0 0.00 0.00 0.00 93 1016.5
20260902120242 80 28 8.0 10.0 0.00 0.00 0.00 93 1016.6
20260902115710 80 42 6.0 9.0 0.00 0.00 0.00 93 1016.5
20260902115215 80 49 7.0 9.0 0.00 0.00 0.00 93 1016.4
20260902114720 79 47 7.0 11.0 0.00 0.00 0.00 93 1016.4
20260902114244 79 34 7.0 12.0 0.00 0.00 0.00 93 1016.3
20260902113748 79 32 10.0 12.0 0.00 0.00 0.00 93 1016.3
20260902113211 79 35 7.0 10.0 0.00 0.00 0.00 94 1016.3
20260902112716 79 28 7.0 9.0 0.00 0.00 0.00 94 1016.3
20260902112221 79 21 6.0 10.0 0.00 0.00 0.00 94 1016.3
20260902111726 79 35 7.0 10.0 0.00 0.00 0.00 94 1016.2
20260902111211 79 31 7.0 10.0 0.00 0.00 0.00 94 1016.2
20260902110715 79 37 6.0 10.0 0.00 0.00 0.00 94 1016.2
20260902110220 79 31 7.0 10.0 0.00 0.00 0.00 94 1016.2
20260902105709 79 32 7.0 9.0 0.00 0.01 0.00 94 1016.2
20260902105213 80 30 7.0 9.0 0.00 0.01 0.00 94 1016.2
20260902104738 79 25 7.0 9.0 0.00 0.01 0.00 94 1016.2
20260902104222 79 18 7.0 9.0 0.00 0.01 0.00 94 1016.1
20260902103725 79 29 7.0 10.0 0.00 0.01 0.00 94 1016.0
20260902103209 79 18 7.0 10.0 0.00 0.01 0.00 94 1015.9
20260902102714 79 34 7.0 10.0 0.00 0.01 0.00 94 1015.9
20260902102239 79 4 7.0 10.0 0.00 0.01 0.00 94 1015.9
20260902101723 79 21 7.0 11.0 0.00 0.01 0.00 94 1015.8
20260902101208 79 23 7.0 11.0 0.00 0.01 0.00 94 1015.7
20260902100725 79 20 8.0 10.0 0.00 0.01 0.00 94 1015.7
20260902100210 79 32 8.0 10.0 0.00 0.01 0.00 93 1015.6
20260902095749 79 30 8.0 10.0 0.00 0.01 0.00 94 1015.7
20260902095212 79 9 7.0 10.0 0.00 0.01 0.00 93 1015.7
20260902094736 79 34 8.0 10.0 0.00 0.01 0.00 93 1015.6
20260902094219 79 28 8.0 10.0 0.00 0.01 0.00 94 1015.6
20260902093724 79 19 9.0 11.0 0.00 0.01 0.00 94 1015.5
20260902093209 79 35 7.0 11.0 0.00 0.01 0.00 94 1015.4
20260902092718 80 37 8.0 10.0 0.00 0.01 0.00 93 1015.4
20260902092243 80 37 8.0 10.0 0.00 0.01 0.00 93 1015.3
20260902091727 80 38 9.0 10.0 0.00 0.01 0.00 93 1015.3
20260902091212 80 32 8.0 9.0 0.00 0.01 0.00 93 1015.3
20260902090716 80 29 8.0 10.0 0.00 0.01 0.00 93 1015.2
20260902090222 80 26 7.0 10.0 0.00 0.01 0.00 94 1015.1
20260902085727 80 34 7.0 8.0 0.00 0.01 0.00 93 1015.1
20260902085210 80 29 7.0 9.0 0.00 0.01 0.00 93 1015.2
20260902084734 80 17 7.0 9.0 0.00 0.01 0.00 93 1015.1
20260902084218 80 29 7.0 10.0 0.00 0.01 0.00 93 1015.1
20260902083723 80 35 7.0 10.0 0.00 0.01 0.00 94 1015.3
20260902083227 79 32 7.0 9.0 0.00 0.01 0.00 94 1015.3
20260902082715 80 31 7.0 10.0 0.00 0.01 0.00 94 1015.2
20260902082220 79 33 7.0 10.0 0.00 0.01 0.00 94 1015.3
20260902081745 80 35 7.0 9.0 0.00 0.01 0.00 93 1015.3
20260902081209 80 25 7.0 9.0 0.00 0.01 0.00 93 1015.3
20260902080726 80 32 7.0 9.0 0.00 0.01 0.00 93 1015.3
20260902080229 80 30 6.0 8.0 0.00 0.01 0.00 93 1015.3
20260902075713 80 24 6.0 8.0 0.00 0.01 0.00 93 1015.4
20260902075217 80 21 7.0 9.0 0.00 0.01 0.00 93 1015.5
20260902074722 80 6 7.0 9.0 0.00 0.01 0.00 93 1015.5
20260902074226 80 24 7.0 8.0 0.00 0.01 0.00 93 1015.5
20260902073711 80 18 6.0 8.0 0.00 0.01 0.00 93 1015.4
20260902073216 80 18 6.0 9.0 0.00 0.01 0.00 93 1015.3
20260902072721 80 3 7.0 9.0 0.00 0.01 0.00 93 1015.4
20260902072209 80 4 7.0 9.0 0.00 0.01 0.00 93 1015.4
20260902071714 80 16 7.0 9.0 0.00 0.01 0.00 93 1015.5
20260902071218 80 9 7.0 9.0 0.00 0.01 0.00 93 1015.5
20260902070743 80 2 7.0 9.0 0.00 0.01 0.00 93 1015.5
20260902070227 80 18 6.0 9.0 0.00 0.01 0.00 93 1015.5
20260902065712 80 14 5.0 8.0 0.00 0.01 0.00 93 1015.5
20260902065237 80 2 5.0 8.0 0.00 0.01 0.00 93 1015.5
20260902064721 80 4 5.0 7.0 0.00 0.01 0.00 93 1015.5
20260902064245 80 338 5.0 8.0 0.00 0.01 0.00 93 1015.6
20260902063709 80 6 5.0 9.0 0.00 0.01 0.00 93 1015.6
20260902063215 80 357 5.0 9.0 0.00 0.01 0.00 93 1015.5
20260902062719 80 15 4.0 6.0 0.00 0.01 0.00 93 1015.5
20260902062208 81 14 4.0 8.0 0.00 0.01 0.00 93 1015.6
20260902061733 80 28 6.0 8.0 0.00 0.01 0.00 93 1015.7
20260902061217 80 10 6.0 8.0 0.00 0.01 0.00 93 1015.6
20260902060733 80 25 6.0 8.0 0.00 0.01 0.00 93 1015.7
20260902060217 80 11 5.0 7.0 0.00 0.01 0.00 93 1015.7
20260902055740 80 23 5.0 7.0 0.00 0.01 0.00 93 1015.8
20260902055224 80 25 5.0 7.0 0.00 0.01 0.00 93 1015.8
20260902054708 80 30 4.0 6.0 0.00 0.01 0.00 93 1015.8
20260902054212 80 14 5.0 7.0 0.00 0.01 0.00 93 1015.7
20260902053717 80 22 5.0 7.0 0.00 0.01 0.00 93 1015.7
20260902053222 80 28 4.0 8.0 0.00 0.01 0.00 93 1015.8
20260902052746 80 21 5.0 8.0 0.00 0.01 0.00 93 1015.7
20260902052230 80 23 6.0 8.0 0.00 0.01 0.00 92 1015.8
20260902051714 80 30 6.0 8.0 0.00 0.01 0.00 92 1015.7
20260902051219 80 31 6.0 8.0 0.00 0.01 0.00 93 1015.8
20260902050723 80 25 7.0 8.0 0.00 0.01 0.00 92 1015.8
20260902050210 80 25 6.0 6.0 0.00 0.01 0.00 93 1015.8
20260902045715 80 32 5.0 6.0 0.00 0.01 0.00 93 1015.9
20260902045219 80 36 4.0 6.0 0.00 0.01 0.00 92 1015.9
20260902044724 80 40 4.0 5.0 0.00 0.01 0.00 92 1015.8
20260902044229 80 51 3.0 5.0 0.00 0.01 0.00 92 1015.9
20260902043714 80 55 3.0 5.0 0.00 0.01 0.00 92 1016.0
20260902043238 80 51 3.0 5.0 0.00 0.01 0.00 92 1016.0
20260902042722 80 45 4.0 6.0 0.00 0.01 0.00 92 1016.1
20260902042227 80 52 5.0 6.0 0.00 0.01 0.00 92 1016.2
20260902041711 80 52 5.0 7.0 0.00 0.01 0.00 92 1016.1
20260902041215 80 54 6.0 7.0 0.00 0.01 0.00 92 1016.2
20260902040733 80 50 5.0 9.0 0.00 0.01 0.00 92 1016.2
20260902040224 80 42 7.0 9.0 0.00 0.01 0.00 91 1016.3
20260902035708 80 49 6.0 7.0 0.00 0.01 0.01 91 1016.3
20260902035233 80 55 5.0 6.0 0.00 0.01 0.01 92 1016.2
20260902034716 80 56 4.0 6.0 0.00 0.01 0.01 92 1016.3
20260902034241 80 54 4.0 6.0 0.00 0.01 0.01 92 1016.3
20260902033708 80 56 4.0 6.0 0.00 0.01 0.01 92 1016.3
20260902033212 80 55 4.0 6.0 0.00 0.01 0.01 92 1016.3
20260902032737 80 56 5.0 6.0 0.00 0.01 0.01 91 1016.4
20260902032220 80 57 5.0 6.0 0.00 0.01 0.01 92 1016.4
20260902031725 80 58 5.0 6.0 0.00 0.01 0.01 91 1016.5
20260902031209 80 56 5.0 6.0 0.00 0.01 0.01 91 1016.5
20260902030713 80 60 4.0 5.0 0.00 0.01 0.01 91 1016.6
20260902030217 80 56 4.0 6.0 0.00 0.01 0.01 91 1016.6
20260902025721 80 56 5.0 7.0 0.00 0.01 0.01 91 1016.7
20260902025225 80 52 5.0 7.0 0.00 0.01 0.01 91 1016.7
20260902024709 80 53 5.0 6.0 0.00 0.01 0.01 91 1016.8
20260902024218 80 54 5.0 6.0 0.00 0.01 0.01 91 1016.8
20260902023721 80 59 4.0 5.0 0.00 0.01 0.01 91 1016.9
20260902023226 80 52 4.0 5.0 0.00 0.01 0.01 91 1017.0
20260902022711 80 55 4.0 6.0 0.00 0.01 0.01 90 1017.0
20260902022235 80 56 4.0 6.0 0.00 0.01 0.01 91 1016.9
20260902021719 80 58 4.0 5.0 0.00 0.01 0.01 90 1016.9
20260902021224 80 54 4.0 5.0 0.00 0.01 0.01 90 1016.9
20260902020721 80 52 4.0 5.0 0.00 0.01 0.01 90 1016.8
20260902020226 80 42 4.0 5.0 0.00 0.01 0.01 90 1016.8
20260902015709 80 53 3.0 6.0 0.00 0.01 0.01 90 1016.8
20260902015214 81 58 4.0 6.0 0.00 0.01 0.01 89 1016.8
20260902014719 81 56 4.0 6.0 0.00 0.01 0.01 89 1016.7
20260902014228 81 51 5.0 6.0 0.00 0.01 0.01 89 1016.7
20260902013710 81 54 5.0 6.0 0.00 0.01 0.01 89 1016.6
20260902013213 81 51 4.0 6.0 0.00 0.01 0.01 89 1016.5
20260902012718 81 51 5.0 6.0 0.00 0.01 0.01 88 1016.5
20260902012223 81 53 4.0 5.0 0.00 0.01 0.01 89 1016.4
20260902011708 81 50 4.0 5.0 0.00 0.01 0.01 88 1016.4
20260902011212 81 44 4.0 6.0 0.00 0.01 0.01 88 1016.3
20260902010738 81 46 5.0 6.0 0.00 0.01 0.01 88 1016.4
20260902010221 81 50 5.0 6.0 0.00 0.01 0.01 88 1016.3
20260902005726 81 54 4.0 6.0 0.00 0.01 0.01 88 1016.3
20260902005211 81 56 4.0 6.0 0.00 0.01 0.01 88 1016.2
20260902004720 81 56 4.0 6.0 0.00 0.01 0.01 87 1016.2
20260902004225 81 43 5.0 7.0 0.00 0.01 0.01 87 1016.2
20260902003710 82 49 5.0 7.0 0.00 0.01 0.01 88 1016.2
20260902003213 82 44 5.0 7.0 0.00 0.01 0.01 87 1016.1
20260902002718 82 31 5.0 7.0 0.00 0.01 0.01 87 1016.2
20260902002222 82 47 6.0 7.0 0.00 0.01 0.01 87 1016.2
20260902001747 82 52 5.0 7.0 0.00 0.01 0.01 87 1016.3
20260902001230 82 36 6.0 8.0 0.00 0.01 0.01 87 1016.3
20260902000724 82 49 6.0 8.0 0.00 0.01 0.01 86 1016.3
20260902000208 82 40 5.0 7.0 0.00 0.01 0.01 86 1016.3
20260901235713 82 51 5.0 9.0 0.00 0.01 0.01 86 1016.2
20260901235227 83 49 6.0 10.0 0.00 0.01 0.01 87 1016.3
20260901234708 83 58 8.0 10.0 0.00 0.01 0.01 86 1016.3
20260901234233 83 63 8.0 12.0 0.00 0.01 0.01 87 1016.2
20260901233717 83 88 9.0 12.0 0.00 0.01 0.01 86 1016.3
20260901233222 83 69 8.0 12.0 0.00 0.01 0.01 87 1016.2
20260901232710 83 70 9.0 10.0 0.00 0.01 0.01 87 1016.2
20260901232215 83 67 8.0 11.0 0.00 0.01 0.01 87 1016.1
20260901231719 83 68 7.0 9.0 0.00 0.01 0.01 86 1016.1
20260901231224 83 51 5.0 10.0 0.00 0.01 0.01 87 1016.1
20260901230708 83 50 8.0 10.0 0.00 0.01 0.01 86 1016.2
20260901230212 83 46 8.0 10.0 0.00 0.01 0.01 86 1016.2
20260901225717 83 47 7.0 11.0 0.00 0.01 0.01 86 1016.1
20260901225221 83 51 8.0 13.0 0.00 0.01 0.01 86 1016.1
20260901224726 83 42 8.0 13.0 0.00 0.01 0.01 85 1016.2
20260901224211 83 45 9.0 14.0 0.00 0.01 0.01 86 1016.1
20260901223720 83 49 11.0 14.0 0.00 0.01 0.01 86 1016.1
20260901223226 83 38 10.0 13.0 0.00 0.01 0.01 86 1015.9
20260901222709 83 42 9.0 15.0 0.00 0.01 0.01 85 1015.9
20260901222234 83 59 10.0 18.0 0.00 0.01 0.01 86 1015.8
20260901221718 83 53 13.0 18.0 0.00 0.01 0.01 84 1015.7
20260901221243 84 65 12.0 16.0 0.00 0.01 0.01 85 1015.6
20260901220718 84 70 11.0 15.0 0.00 0.01 0.01 85 1015.5
20260901220224 84 47 12.0 15.0 0.00 0.01 0.01 85 1015.5
20260901215708 84 63 11.0 15.0 0.00 0.01 0.01 84 1015.4
20260901215233 84 54 10.0 15.0 0.00 0.01 0.01 84 1015.3
20260901214717 84 66 10.0 15.0 0.00 0.01 0.01 83 1015.4
20260901214221 84 48 12.0 15.0 0.00 0.01 0.01 83 1015.5
20260901213727 84 44 10.0 15.0 0.00 0.01 0.01 83 1015.5
20260901213215 84 70 11.0 14.0 0.00 0.01 0.01 83 1015.6
20260901212719 84 65 10.0 15.0 0.00 0.01 0.01 83 1015.6
20260901212224 84 49 10.0 15.0 0.00 0.01 0.01 83 1015.6
20260901211709 84 69 12.0 17.0 0.00 0.01 0.01 84 1015.6
20260901211215 84 56 12.0 17.0 0.00 0.01 0.01 84 1015.6
20260901210719 84 59 12.0 18.0 0.00 0.01 0.01 82 1015.5
20260901210224 84 63 13.0 18.0 0.00 0.01 0.01 83 1015.5
20260901205748 84 48 15.0 19.0 0.00 0.03 0.01 83 1015.5
20260901205212 84 52 15.0 19.0 0.00 0.03 0.01 83 1015.6
20260901204717 84 47 13.0 17.0 0.00 0.03 0.01 83 1015.7
20260901204221 85 40 11.0 14.0 0.00 0.03 0.01 83 1015.8
20260901203710 85 62 10.0 14.0 0.00 0.03 0.01 83 1015.9
20260901203215 85 49 9.0 14.0 0.00 0.03 0.01 83 1015.9
20260901202719 85 59 11.0 14.0 0.00 0.03 0.01 81 1015.9
20260901202224 85 63 10.0 15.0 0.00 0.03 0.01 82 1015.9
20260901201729 85 59 13.0 16.0 0.00 0.03 0.01 80 1016.0
20260901201213 85 66 13.0 16.0 0.00 0.03 0.01 81 1015.9
20260901200709 85 68 12.0 15.0 0.00 0.03 0.01 80 1016.0
20260901200214 85 67 11.0 18.0 0.00 0.19 0.01 79 1016.0
20260901195717 85 64 10.0 20.0 0.00 0.19 0.01 81 1016.1
20260901195222 86 66 17.0 20.0 0.00 0.19 0.01 80 1016.2
20260901194726 86 75 11.0 15.0 0.00 0.19 0.01 78 1016.0
20260901194231 86 66 12.0 15.0 0.00 0.19 0.01 79 1016.1
20260901193715 86 63 12.0 15.0 0.00 0.19 0.01 78 1016.0
20260901193225 86 56 10.0 13.0 0.00 0.19 0.01 79 1016.0
20260901192708 86 63 10.0 14.0 0.00 0.19 0.01 78 1016.0
20260901192213 87 78 12.0 14.0 0.00 0.19 0.01 75 1016.1
20260901191717 86 82 8.0 13.0 0.00 0.19 0.01 75 1016.1
20260901191222 86 83 10.0 14.0 0.00 0.19 0.01 76 1016.1
20260901190747 86 84 10.0 15.0 0.00 0.19 0.01 76 1016.0
20260901190211 87 69 12.0 15.0 0.00 0.19 0.01 78 1016.0
20260901185716 87 63 10.0 13.0 0.00 0.19 0.01 76 1016.0
20260901185220 87 63 9.0 13.0 0.00 0.19 0.01 75 1016.0
20260901184745 87 82 12.0 13.0 0.00 0.19 0.01 74 1016.1
20260901184209 87 62 9.0 12.0 0.00 0.19 0.01 74 1016.1
20260901183715 87 59 10.0 14.0 0.00 0.19 0.01 76 1016.1
20260901183223 87 54 10.0 14.0 0.00 0.19 0.01 74 1016.1
20260901182708 87 70 7.0 12.0 0.00 0.19 0.01 75 1016.2
20260901182213 87 51 11.0 12.0 0.00 0.19 0.01 73 1016.3
20260901181717 87 58 9.0 12.0 0.00 0.19 0.01 73 1016.3
20260901181222 87 51 8.0 14.0 0.00 0.19 0.01 73 1016.3
20260901180719 87 51 8.0 14.0 0.00 0.19 0.01 73 1016.3
20260901180225 87 54 9.0 12.0 0.00 0.19 0.01 73 1016.4
20260901175709 87 67 6.0 8.0 0.00 0.19 0.01 71 1016.5
20260901175213 87 38 5.0 8.0 0.00 0.19 0.01 69 1016.5
20260901174738 87 61 5.0 10.0 0.00 0.19 0.01 71 1016.6
20260901174221 87 42 7.0 10.0 0.00 0.19 0.01 71 1016.8
20260901173746 87 45 8.0 13.0 0.00 0.19 0.01 73 1016.8
20260901173212 87 49 9.0 13.0 0.00 0.19 0.01 76 1016.8
20260901172716 87 70 9.0 13.0 0.00 0.19 0.01 75 1016.8
20260901172220 87 59 10.0 13.0 0.00 0.19 0.01 76 1016.9
20260901171725 87 75 9.0 11.0 0.00 0.19 0.01 75 1017.0
20260901171210 86 65 8.0 12.0 0.00 0.19 0.01 76 1017.1
20260901170736 86 46 9.0 11.0 0.00 0.19 0.01 77 1017.2
20260901170240 86 79 9.0 12.0 0.00 0.19 0.01 78 1017.1
20260901165743 86 63 9.0 14.0 0.00 0.19 0.01 78 1017.2